Showing default

ICEYE-X41, 62700

Orbit data source: Space-Track

ICEYE-X41, 62700 is a payload satellite owned by ICEYE US (US) in SSO that was launched on Tue, 14 Jan 2025 UTC via an FALCON 9 launch vehicle from the Air Force Western Test Range (AFWTR). Payload-class satellites include a variety of spacecraft equipped with specific instruments for various scientific and technological missions. These include communications satellites like Starlink; space stations such as the ISS; scientific satellites like the Hubble; Earth observation satellites from companies like Planet Labs, Umbra, and HawkEye 360; GPS; miniature CubeSats for education and research; and military/defense satellites.

Loading next visibility...
Identifier
62700, 2025-009CV
Orbit
SSO
Country
Flag of USUS
Related business
Manufacturer
ICEYE
Mission
Operational Commercial Radar Imaging
Bus & Motor
ICEYE, Unknown motor
Mass
80 kg wet, 80 kg dry
Launch date (UTC)
2025-01-14 (1 year ago)
Launch vehicle
FALCON 9
Launch site
Air Force Western Test Range (AFWTR)
Object type
Payload
Rocket body
Debris
Shape & HBR
Box + 1 Pan, 0.6 m
Radar Cross Section
0.776 m², Medium (>0.1 m² and < 1m²)

Expand to show TLE details & history
Last TLE update: 10 hours ago

TLE from 10 hours ago
0 ICEYE-X41
1 62700U 25009CV  26104.95221554  .00001657  00000-0  15148-3 0  9998
2 62700  97.7072 185.4166 0001313 179.6448 180.4775 14.96344585 67955
Epoch: 2026-04-14T22:51Z
TLE epoch observation values (Epoch: 2026-04-14T22:51:11.422Z)
Latitude
0.00001°
Longitude
-0.50208°
Altitude
582.165 km
Speed
7.569 km/s
True Right ascension
12h 21m 39s
True Declination
0° 00' 00"
Sunlit
Object was in full shadow at epoch
Visualization orbit readout
Latitude
Unknown
Longitude
Unknown
Altitude
Unknown
Speed
Unknown
Apparent Right ascension
Unknown
Apparent Declination
Unknown
Sunlit
N/A
Visualization observer readout
Local Sidereal Time
15:48:20
Azimuth
Unknown
Elevation
Unknown
Doppler factor
Unknown
Orbital elements
Apogee altitude
576.126 km
Perigee altitude
574.3 km
Semi-major axis
6,953.35 km
Eccentricity
0.00013
Inclination
97.7072°
RAAN
185.4166°
Arg. of periapsis
179.6448°
True anomaly
180.47737°
Mean anomaly
180.4775°
Eccentric anomaly
180.47744°
Mean motion
3.74328 °/min
Orbital period
96.17 mins
BSTAR
0.00015148
Loading maneuver chart data...
Computing Atmospheric mass density...
Loading historical data...
Loading historical data...
Loading historical data...
Loading historical data...
Loading historical data...
Loading historical data...
Loading historical data...

Documentation

Showing up to 5 results
|